Location: Olomouc
(49.5830°N, 17.2500°E)
Time: 04:41:56
(UTC+02:00)

ISS - Pass Details

Date: 21 May 2021
Orbit: 417 x 422 km, 51.6° (Epoch: 13 June)

Event Time Altitude Azimuth Distance (km) Brightness Sun altitude
Rises 00:32:30 0° 288° (WNW) 2,370 0.4 -20.2°
Reaches altitude 10° 00:34:37 10° 286° (WNW) 1,505 -0.7 -20.2°
Enters shadow 00:37:08 46° 271° (W) 576 -3.1 -20.2°
